Location: Alafon
(8.4500°N, 4.2333°E)
Time: 01:33:09
(UTC+00:00)

ATLAS 5 CENTAUR R/B - Pass Details

Date: 05 July 2020
Orbit: 534 x 1124 km, 63.4° (Epoch: 03 August)

Event Time Altitude Azimuth Distance (km) Brightness Sun altitude
Rises 19:11:05 0° 209° (SSW) 2,754 4.9 -15.5°
Reaches altitude 10° 19:13:22 10° 212° (SSW) 1,817 4.0 -16.0°
Maximum altitude 19:17:19 63° 294° (WNW) 597 1.7 -16.9°
Drops below altitude 10° 19:21:12 10° 16° (NNE) 1,786 4.1 -17.8°
Sets 19:23:26 0° 19° (NNE) 2,702 5.0 -18.2°
